User: anonymous   Login
Location: Cossonay
(46.5833°N, 6.4167°E)
Time: 15:20:33
(UTC+00:00)
Language:

Cosmos 1697 Rocket - Orbit

View from above orbital plane
View from above orbital plane
View from above satellite
View from above satellite

Ground track
Ground track

The orbit data is extracted from the following two-line orbital elements,

1 16182U 85097B   20224.95858191 -.00000293 +00000-0 -12376-3 0  9991
2 16182 071.0032 104.7165 0005590 130.0294 241.1887 14.16254219799017
Epoch (UTC): 11 August 2020 23:00:21
Eccentricity: 0.0005590
inclination: 71.0032°
perigee height: 834 km
apogee height: 842 km
right ascension of ascending node: 104.7165°
argument of perigee: 130.0294°
revolutions per day: 14.16254219
mean anomaly at epoch: 241.1887°
orbit number at epoch: 79901

The dashed part of the orbit path shows where the satellite is in the earth's shadow,  

DLR